Terminal Aerodrome Forecast
Issued by NWS

Home | Current Version | Previous Version | Text Only | Print | Product List | Glossary On
Versions: 1 2 3 4 5 6 7 8 9 10 11 12 13 14 15 16 17 18
000
FTAK31 PANC 182327
TAFACD
TAF
PACD 182327Z 1900/1924 29016KT P6SM BKN045
      TEMPO 1900/1904 30020G30KT
     FM190400 30022KT P6SM -SHRA BKN040
     FM191200 31013KT P6SM VCSH BKN050=

USA.gov is the U.S. government's official web portal to all federal, state and local government web resources and services.